Tracking 32968 objects as of 17-Jan-2026
HD Live streaming from Space Station
objects crossing your sky now

STARLINK-31187

Track STARLINK-31187 now!
10-day predictions
STARLINK-31187 is classified as:


NORAD ID: 58790
Int'l Code: 2024-012D
Perigee: 489.1 km
Apogee: 490.6 km
Inclination: 43.0 °
Period: 94.3 minutes
Semi major axis: 6860 km
RCS: Unknown
Launch date: January 15, 2024
Source: United States (US)
Launch site: AIR FORCE EASTERN TEST RANGE (AFETR)
Your satellite tracking list
Your tracking list is empty




NASA's NSSDC Master Catalog

Two Line Element Set (TLE):
1 58790U 24012D   26016.58885361 -.00021169  00000-0 -75967-3 0  9995
2 58790  42.9993  99.8459 0001093 235.9069 124.1679 15.27677567113264
Source of the keplerian elements: AFSPC